This is the latest recevied weather packets stored in our database for station/object DL6MAA-11. If no packets are shown the sender has not sent any weather packets the latest 1 day(s).
| Time | Temp. | Humidity | Pressure | Rain* | Wind** | Luminosity | Snow |
|---|---|---|---|---|---|---|---|
| 1777972626 | 19.44° C | 57% | 1005.4 hPa | 0 mm | 0 m/s | 169 W/m² | - |
| 1777972310 | 18.89° C | 63% | 1005.5 hPa | 0 mm | 0 m/s | 174 W/m² | - |
| 1777972009 | 18.33° C | 61% | 1005.5 hPa | 0 mm | 0 m/s | 169 W/m² | - |
| 1777971717 | 17.78° C | 61% | 1005.5 hPa | 0 mm | 0 m/s | 162 W/m² | - |
| 1777971419 | 17.78° C | 61% | 1005.7 hPa | 0 mm | 0 m/s | 162 W/m² | - |
| 1777971123 | 17.22° C | 62% | 1005.7 hPa | 0 mm | 0 m/s | 142 W/m² | - |
| 1777970821 | 17.22° C | 62% | 1005.7 hPa | 0 mm | 0 m/s | 114 W/m² | - |
| 1777970529 | 17.22° C | 63% | 1005.5 hPa | 0 mm | 0 m/s | 128 W/m² | - |
| 1777970209 | 17.78° C | 61% | 1005.5 hPa | 0 mm | 0 m/s | 121 W/m² | - |
| 1777969928 | 18.33° C | 60% | 1005.5 hPa | 0 mm | 0 m/s | 394 W/m² | - |
| 1777969612 | 17.78° C | 63% | 1005.8 hPa | 0 mm | 0 m/s | 482 W/m² | - |
| 1777969310 | 17.78° C | 64% | 1005.8 hPa | 0 mm | 0 m/s | 432 W/m² | - |
| 1777969018 | 17.22° C | 66% | 1005.8 hPa | 0 mm | 0 m/s | 441 W/m² | - |
| 1777968722 | 16.67° C | 63% | 1005.8 hPa | 0 mm | 0 m/s | 454 W/m² | - |
| 1777968430 | 16.67° C | 66% | 1005.8 hPa | 0 mm | 0 m/s | 429 W/m² | - |
| 1777968114 | 16.67° C | 68% | 1005.8 hPa | 0 mm | 0 m/s | 413 W/m² | - |
| 1777967816 | 16.11° C | 69% | 1006.1 hPa | 0 mm | 0 m/s | 353 W/m² | - |
| 1777967524 | 15.56° C | 68% | 1006.1 hPa | 0 mm | 0 m/s | 287 W/m² | - |
| 1777967227 | 15.56° C | 68% | 1006.1 hPa | 0 mm | 0 m/s | 315 W/m² | - |
| 1777966912 | 15.56° C | 69% | 1006.3 hPa | 0 mm | 0 m/s | 318 W/m² | - |
| 1777966613 | 15.56° C | 69% | 1006.3 hPa | 0 mm | 0 m/s | 403 W/m² | - |
| 1777966316 | 15° C | 69% | 1006.3 hPa | 0 mm | 0 m/s | 425 W/m² | - |
| 1777966021 | 14.44° C | 71% | 1006.6 hPa | 0 mm | 0 m/s | 418 W/m² | - |
| 1777965716 | 14.44° C | 71% | 1006.6 hPa | 0 mm | 0 m/s | 364 W/m² | - |
| 1777965418 | 14.44° C | 72% | 1006.6 hPa | 0 mm | 0.45 m/s, 287° | 281 W/m² | - |
* Rain since midnight (hover to see other rain measurements)
** Current wind speed in m/s (hover to see current wind gust speed)